📊 Raw Sensor Data

Showing records 35326 to 35350 of 84,875 total

ID Distance (ft) Battery V Battery A Int Temp (°F) Int Humid (%) Ext Temp (°F) Solar V RSSI SNR Time Stamp
49562 15.4 3.83 0 104 43 93 5.10 -70 8 08/18/2025 04:00 PM
49561 15.4 3.83 0 102 43 91 5.10 -69 8 08/18/2025 03:45 PM
49560 15.4 3.94 0 103 42 86 5.10 -71 7 08/18/2025 03:30 PM
49559 15.4 3.83 0 102 42 92 5.10 -71 7 08/18/2025 03:15 PM
49558 15.4 3.95 0 102 41 91 5.10 -70 8 08/18/2025 03:00 PM
49557 15.4 3.83 0 100 41 90 5.10 -69 8 08/18/2025 02:45 PM
49556 15.4 3.83 0 99 40 88 5.10 -70 7 08/18/2025 02:30 PM
49555 15.4 3.83 0 98 40 88 5.10 -69 8 08/18/2025 02:15 PM
49554 15.4 3.83 0 95 41 85 5.10 -70 8 08/18/2025 02:00 PM
49553 15.4 3.83 0 94 41 86 5.10 -70 8 08/18/2025 01:45 PM
49552 15.4 3.82 0 92 41 82 5.10 -70 8 08/18/2025 01:30 PM
49551 15.4 3.82 0 91 41 83 5.10 -69 8 08/18/2025 01:15 PM
49550 15.4 3.82 0 90 41 82 5.10 -71 7 08/18/2025 01:00 PM
49549 15.4 4.05 0 89 41 83 5.10 -71 7 08/18/2025 12:45 PM
49548 15.4 3.94 0 87 41 82 5.10 -69 8 08/18/2025 12:30 PM
49547 15.4 4.07 0 85 41 83 5.10 -71 8 08/18/2025 12:15 PM
49546 15.4 3.83 0 82 42 81 5.10 -70 8 08/18/2025 12:00 PM
49545 15.4 3.83 0 81 43 74 5.10 -69 8 08/18/2025 11:45 AM
49544 15.5 3.83 0 80 42 80 5.10 -69 7 08/18/2025 11:15 AM
49543 15.5 4.03 0 79 42 76 5.10 -69 7 08/18/2025 11:00 AM
49542 15.5 4.02 0 78 42 78 5.10 -69 8 08/18/2025 10:45 AM
49541 15.5 3.83 0 76 42 76 5.10 -71 7 08/18/2025 10:30 AM
49540 15.5 3.83 0 75 42 75 5.10 -70 8 08/18/2025 10:15 AM
49539 15.5 3.97 0 73 42 76 5.10 -70 8 08/18/2025 10:00 AM
49538 15.5 3.95 0 72 42 77 5.10 -71 7 08/18/2025 09:45 AM